LEMUR 2 TRUTNA

Last updated on Sat Apr 08 2017 00:15:05 GMT+0000 (Coordinated Universal Time)

1 42067U 98067LC 17096.95341838 .00030575 00000-0 43334-3 0 9993 2 42067 51.6434 33.0966 0009102 38.9943 321.1704 15.56151374 4740

Satellite not in orbit